GFSNIL_prec_cthk_162.txt.gz
RH
72 71 68 66 65 63 66 72 70 65 65 67 58 50 40 39 36 32 29 28 26 27
73 73 71 67 66 69 74 72 75 71 71 66 58 47 42 39 36 32 29 29 24 24
72 68 67 68 76 80 81 82 76 75 71 62 50 46 43 40 36 32 30 31 33 30
75 73 72 81 92 85 84 82 80 77 69 58 50 47 45 41 35 32 32 31 31 28
71 75 85 93 87 89 87 86 80 70 63 53 47 46 42 37 33 31 32 33 33 33
88 97 94 93 93 96 91 86 78 68 61 56 52 48 40 36 35 35 35 35 36 34
97 95 96 98 98 94 87 84 81 69 62 57 52 47 44 42 43 42 39 36 36 36
96 97 98 99 96 94 97 93 84 72 66 66 59 52 51 53 52 51 49 44 43 44
94 96 96 98 97 98 90 86 92 82 69 69 58 52 56 57 56 48 43 43 49 47
95 98 99 97 98 93 97 93 83 76 74 70 67 61 54 51 50 46 45 44 42 43
98 97 98 98 97 96 96 93 80 71 69 64 65 64 59 54 49 47 46 45 44 41
95 97 95 94 95 94 88 86 83 69 66 70 63 62 58 54 52 50 47 46 44 39
90 90 91 90 93 93 88 80 73 72 74 73 68 63 59 54 58 52 51 52 47 38
80 83 88 84 87 95 90 88 87 82 77 75 66 64 60 58 59 56 64 63 46 38

GFSNIL_prec_cthk_168.txt.gz
RH
73 73 73 70 70 73 75 73 71 68 65 67 70 73 73 72 70 68 68 59 50 44
73 73 72 71 75 77 79 76 71 68 68 70 76 78 77 75 73 70 62 58 56 48
80 78 76 75 78 80 80 76 72 71 75 79 83 85 85 78 72 70 66 57 49 44
84 84 83 84 86 88 87 78 70 72 81 89 93 89 80 77 72 66 57 48 45 42
88 89 91 92 90 91 87 77 70 81 94 98 90 82 80 73 69 63 55 51 45 40
91 93 95 96 93 88 80 78 83 88 98 93 88 83 78 76 67 60 56 51 49 45
86 90 93 91 86 81 82 89 97 98 98 95 94 87 78 71 68 65 59 55 52 47
78 82 83 88 90 94 95 98 98 98 98 98 97 88 79 75 70 65 60 58 54 47
74 79 85 87 94 98 98 98 98 98 98 97 90 90 80 77 71 66 63 61 52 48
80 84 89 90 94 95 95 97 97 98 98 97 97 89 88 79 69 67 68 61 54 48
71 73 78 84 88 89 88 92 94 98 96 95 96 93 82 77 72 71 63 57 53 49
46 51 60 69 79 85 89 93 94 98 95 97 96 92 81 77 79 70 62 57 53 49
42 44 49 58 66 74 81 91 94 98 97 97 95 86 79 78 73 68 63 57 52 46
44 46 52 59 67 78 84 88 88 92 93 94 92 90 88 71 69 66 57 54 54 51

GFSNIL_prec_cthk_174.txt.gz
RH
96 96 93 94 93 88 93 91 87 84 77 76 74 73 71 70 71 72 76 71 68 66
93 96 95 88 95 90 84 86 85 83 84 82 79 77 77 76 77 76 75 71 71 69
94 96 89 95 98 94 91 85 88 82 87 85 82 78 77 77 78 79 76 78 76 71
88 89 93 97 97 94 95 91 91 85 87 89 89 89 86 81 82 87 88 83 80 72
88 84 84 95 96 93 93 93 93 90 93 98 94 86 83 85 94 94 90 84 79 72
72 74 75 86 80 76 79 84 90 90 93 92 94 89 91 96 98 97 96 87 75 66
58 61 64 63 59 59 64 69 73 79 85 89 87 89 93 96 95 94 91 81 72 68
51 50 51 51 54 57 62 67 74 75 73 77 84 92 96 97 97 95 93 87 79 72
39 41 46 51 56 59 62 69 69 74 78 80 88 91 96 94 92 94 89 82 75 74
36 37 41 43 44 46 47 47 52 56 59 65 74 87 97 96 97 97 95 91 83 77
32 34 36 37 37 39 40 42 47 51 54 59 63 70 86 97 97 97 97 87 82 74
32 34 39 35 35 38 39 43 45 49 52 56 62 67 73 90 97 97 96 90 79 71
29 31 33 33 33 34 38 43 45 49 50 55 60 67 72 83 96 97 97 92 82 73
28 31 32 34 39 39 40 43 47 51 55 62 67 72 80 82 89 90 96 88 78 70

GFSNIL_prec_cthk_177.txt.gz
RH
89 86 92 89 96 96 96 96 97 97 94 91 92 92 90 86 85 81 73 69 72 69
85 83 83 86 91 90 94 89 89 91 91 91 92 93 91 88 84 81 83 81 82 85
78 83 84 79 87 89 95 87 81 85 84 84 81 79 82 80 80 82 77 78 82 81
67 73 85 82 90 92 94 88 88 86 91 89 89 87 85 84 81 81 89 87 84 85
60 60 65 66 72 76 72 78 80 86 88 92 95 95 92 95 96 93 89 90 94 95
47 50 50 50 52 56 60 64 65 69 75 82 85 91 85 79 82 89 96 99 99 94
43 41 43 46 48 51 52 54 56 60 61 64 66 71 75 77 80 89 94 95 97 89
36 37 37 37 42 45 48 51 54 57 58 59 61 61 64 70 79 86 88 92 96 90
35 38 39 41 43 45 47 48 44 43 44 44 47 50 53 56 66 82 89 88 90 89
37 40 39 40 40 41 37 42 41 41 43 47 49 53 56 59 60 61 74 86 86 81
40 39 38 39 39 40 38 39 40 41 43 46 49 48 52 59 60 58 64 81 94 93
38 39 35 35 38 40 35 39 40 43 45 45 48 50 53 57 61 64 65 87 97 95
41 39 32 33 34 33 33 37 40 44 45 45 46 52 57 63 67 71 71 84 92 94
45 37 33 36 36 37 36 38 41 44 44 46 52 57 60 64 69 74 80 84 84 84

GFSNIL_prec_cthk_180.txt.gz
RH
87 91 95 94 91 96 96 94 87 94 94 89 91 93 92 90 87 88 90 91 94 95
85 82 91 90 94 93 90 94 89 88 91 92 90 89 89 91 93 95 95 95 91 83
74 78 83 82 87 88 76 79 77 78 78 77 79 83 83 83 84 80 79 82 81 83
64 64 61 62 67 65 64 68 72 72 75 80 75 67 68 66 67 72 70 71 71 74
59 60 63 62 61 63 64 64 65 65 66 69 72 73 78 85 86 84 82 87 94 93
46 45 45 46 48 49 49 49 48 54 56 59 63 65 67 70 72 75 81 78 83 88
42 43 43 40 41 42 43 44 44 42 43 44 44 45 47 47 48 50 54 62 71 78
40 39 35 35 36 36 36 35 36 37 39 40 39 36 35 36 36 41 47 51 60 68
36 33 31 28 28 32 32 34 34 32 30 30 31 34 36 37 38 38 41 44 46 52
32 31 31 31 31 32 32 33 32 31 30 29 33 39 40 39 40 42 43 45 46 48
35 33 34 33 33 32 33 31 29 28 28 30 33 39 40 38 41 45 46 49 49 49
35 38 38 36 36 36 33 30 30 28 29 33 36 39 40 38 42 51 51 53 58 59
41 42 43 43 41 38 37 31 30 29 31 39 40 40 39 39 44 55 56 56 59 63
49 49 48 50 47 40 36 31 29 29 33 40 43 43 44 48 53 59 60 59 63 70